KJ4CO Weather Reports


time (UTC)temp
C
wind
direction
speed
KPH
gust
KPH
rain 1hr
cm
rain 24hr
cm
rain mn
cm
humidity
%
barometer
mb
20260507104527 7 343 0.0 0.0 0.00 0.03 0.00 96 1016.6
20260507103026 7 343 0.0 0.0 0.00 0.03 0.00 96 1016.7
20260507101524 7 343 0.0 0.0 0.00 0.03 0.00 96 1016.7
20260507100032 7 343 0.0 0.0 0.00 0.03 0.00 96 1016.7
20260507094522 7 343 0.0 0.0 0.00 0.05 0.00 96 1016.6
20260507093020 7 343 0.0 0.0 0.00 0.05 0.00 96 1016.4
20260507091518 7 343 0.0 0.0 0.00 0.05 0.00 96 1016.3
20260507090021 7 343 0.0 0.0 0.00 0.05 0.00 96 1016.1
20260507084516 7 344 0.0 0.0 0.00 0.05 0.00 96 1016.0
20260507083015 8 344 0.0 0.0 0.00 0.05 0.00 96 1016.0
20260507081527 8 344 0.0 0.0 0.00 0.05 0.00 95 1015.8
20260507080011 8 344 0.0 0.0 0.00 0.05 0.00 95 1015.9
20260507074521 8 344 0.0 0.0 0.00 0.05 0.00 95 1015.8
20260507073008 8 344 0.0 0.0 0.00 0.05 0.00 95 1015.8
20260507071507 9 344 0.0 0.0 0.00 0.05 0.00 96 1015.7
20260507070008 9 344 0.0 0.0 0.00 0.46 0.00 96 1015.9
20260507064502 9 344 0.0 0.0 0.00 0.46 0.00 96 1015.9
20260507063100 10 344 0.0 0.0 0.00 0.46 0.00 95 1016.1
20260507061606 10 344 0.0 0.0 0.00 0.46 0.00 96 1016.0
20260507060057 10 344 0.0 0.0 0.00 0.46 0.00 95 1016.2
20260507054637 10 344 0.0 0.0 0.00 0.56 0.00 95 1016.1
20260507053054 10 344 0.0 0.0 0.00 0.56 0.00 95 1015.9
20260507051551 11 344 0.0 0.0 0.00 0.56 0.00 95 1016.0
20260507050054 11 344 0.0 0.0 0.00 0.56 0.00 96 1015.9
20260507044553 11 344 0.0 0.0 0.00 0.56 0.56 96 1016.1
20260507043047 11 344 0.0 0.0 0.00 0.56 0.56 96 1016.1
20260507041551 11 344 0.0 0.0 0.00 0.56 0.56 96 1016.0
20260507040046 11 344 0.0 0.0 0.00 0.56 0.56 96 1015.7
20260507034555 11 344 0.0 0.0 0.00 0.71 0.56 95 1015.6
20260507033051 11 344 0.0 0.0 0.00 0.71 0.56 95 1015.9
20260507031601 11 344 0.0 0.0 0.00 0.71 0.56 95 1015.6
20260507030051 11 343 0.0 0.0 0.00 0.71 0.56 95 1015.2
20260507024545 11 343 0.0 0.0 0.00 1.04 0.56 94 1015.3
20260507023042 11 343 0.0 0.0 0.00 1.04 0.56 94 1015.5
20260507021541 11 343 0.0 0.0 0.00 1.04 0.56 93 1016.1
20260507020040 11 343 0.0 0.0 0.00 1.04 0.56 93 1015.8
20260507014547 11 343 0.0 0.0 0.00 1.24 0.56 91 1015.6
20260507013039 12 343 0.0 0.0 0.00 1.24 0.56 91 1015.4
20260507011541 12 343 0.0 0.0 0.00 1.24 0.56 90 1015.6
20260507010041 12 343 0.0 0.0 0.00 1.24 0.56 89 1015.6
20260507004535 12 344 0.0 0.0 0.00 1.27 0.56 87 1015.3
20260507003038 12 344 0.0 0.0 0.00 1.27 0.56 87 1015.0
20260507001537 13 344 0.0 0.0 0.00 1.27 0.56 85 1014.5
20260507000038 13 344 0.0 0.0 0.00 1.27 0.56 86 1014.1
20260506234534 13 344 0.0 0.0 0.00 1.32 0.56 83 1013.7
20260506233036 13 344 0.0 0.0 0.00 1.32 0.56 82 1013.9
20260506231532 13 344 0.0 0.0 0.00 1.32 0.56 82 1013.8
20260506230032 13 344 0.0 0.0 0.00 1.32 0.56 80 1013.9
20260506224532 13 344 0.0 0.0 0.00 1.42 0.56 77 1014.6
20260506223031 13 344 0.0 0.0 0.00 1.42 0.56 77 1014.5
20260506221531 13 344 0.0 0.0 0.00 1.42 0.56 76 1014.7
20260506220030 14 344 0.0 0.0 0.00 1.42 0.56 75 1014.5
20260506214530 14 344 0.0 0.0 0.00 1.55 0.56 75 1014.6
20260506213031 14 344 0.0 0.0 0.00 1.55 0.56 78 1014.7
20260506211530 14 344 0.0 0.0 0.00 1.55 0.56 76 1014.9
20260506210030 14 344 0.0 0.0 0.00 1.55 0.56 80 1014.7
20260506204527 14 344 0.0 0.0 0.00 1.63 0.56 76 1014.6
20260506203026 14 344 0.0 0.0 0.00 1.63 0.56 75 1014.9
20260506201525 14 344 0.0 0.0 0.00 1.63 0.56 75 1014.4
20260506200024 14 344 0.0 0.0 0.00 1.63 0.56 76 1014.8
20260506194523 14 344 0.0 0.0 0.00 1.73 0.56 74 1015.3
20260506193023 15 344 0.0 0.0 0.00 1.73 0.56 74 1015.5
20260506191522 15 344 0.0 0.0 0.00 1.73 0.56 75 1015.0
20260506190020 15 344 0.0 0.0 0.00 1.73 0.56 74 1014.9
20260506184519 14 344 0.0 0.0 0.00 1.80 0.56 77 1014.9
20260506183015 14 344 0.0 0.0 0.00 1.80 0.56 78 1014.6
20260506181515 13 344 0.0 0.0 0.00 1.80 0.56 78 1014.9
20260506180014 13 344 0.0 0.0 0.00 1.80 0.56 78 1014.8
20260506174514 14 344 0.0 0.0 0.00 1.91 0.56 77 1015.2
20260506173013 14 333 0.0 0.0 0.00 1.91 0.56 80 1015.0
20260506171511 13 333 0.0 0.0 0.00 1.91 0.56 80 1014.9
20260506170007 13 332 0.0 0.0 0.00 1.91 0.56 84 1014.5
20260506164505 13 332 0.0 0.0 0.03 1.91 0.56 84 1014.7
20260506163003 12 332 0.0 0.0 0.03 1.91 0.56 86 1014.9
20260506161618 12 332 0.0 0.0 0.03 1.91 0.56 87 1014.8
20260506160058 12 332 0.0 0.0 0.03 1.91 0.56 87 1015.2
20260506154614 11 332 0.0 0.0 0.00 2.13 0.53 88 1015.2
20260506153106 11 332 0.0 0.0 0.00 2.13 0.53 89 1015.2
20260506151555 11 332 0.0 0.0 0.00 2.13 0.53 90 1014.9
20260506150050 11 334 0.0 0.0 0.00 2.13 0.53 91 1014.9
20260506144547 11 334 0.0 0.0 0.00 2.41 0.53 90 1014.6
20260506143100 11 324 0.0 0.0 0.00 2.41 0.53 91 1014.4
20260506141544 10 324 0.0 0.0 0.00 2.41 0.53 92 1014.3
20260506140041 10 324 0.0 0.0 0.00 2.41 0.53 93 1013.7
20260506134538 10 324 0.0 0.0 0.00 2.51 0.53 95 1013.5
20260506133036 9 1 0.0 0.0 0.00 2.51 0.53 96 1013.1
20260506131535 9 3 0.0 0.0 0.00 2.51 0.53 97 1013.2
20260506130036 8 3 0.0 0.0 0.00 2.51 0.53 97 1013.2
20260506124533 8 3 0.0 0.0 0.00 2.51 0.53 98 1012.9
20260506123035 8 3 0.0 0.0 0.00 2.51 0.53 97 1012.7
20260506121539 8 2 0.0 0.0 0.00 2.51 0.53 97 1012.9
20260506120031 8 3 0.0 0.0 0.00 2.51 0.53 97 1012.7
20260506114539 7 3 0.0 0.0 0.00 2.51 0.53 97 1012.4
20260506113029 7 3 0.0 0.0 0.00 2.51 0.53 97 1012.3
20260506111535 7 3 0.0 0.0 0.00 2.51 0.53 97 1012.7
20260506110028 7 3 0.0 0.0 0.00 2.51 0.53 97 1012.1